When you browse on this site, cookies collect data to enhance your experience and personalize the content and advertising you see.
Visit our Privacy Policy to learn more. By continuing to use the site, you agree to this use of cookies and data.
  • In Slovakia
  • List of Countries
  • For 7 days
  • Water Temperature
  • Satellite Maps
  • Weather Map
  • Weather Widgets
  • user-avatar
    Login

    Hourly Weather Santa Fe

    Today, 18 January, Friday

    Time Temperature Precipitation Wind Pressure Humidity
    00:00 +16°C° 3 mm 7 mps 762 mmHg 91%
    01:00 +16°C° 3 mm 7 mps 762 mmHg 92%
    02:00 +16°C° 0 mm 7 mps 763 mmHg 91%
    03:00 +15°C° 1.7 mm 6 mps 763 mmHg 92%
    04:00 +15°C° 1.7 mm 5 mps 763 mmHg 93%
    05:00 +15°C° 1.7 mm 4 mps 763 mmHg 93%
    06:00 +17°C° 0.1 mm 4 mps 763 mmHg 91%
    07:00 +16°C° 0.1 mm 5 mps 763 mmHg 89%
    08:00 +17°C° 0.1 mm 5 mps 764 mmHg 87%
    09:00 +20°C° 0 mm 5 mps 764 mmHg 80%
    10:00 +21°C° 0 mm 5 mps 764 mmHg 73%
    11:00 +23°C° 0 mm 5 mps 764 mmHg 67%
    12:00 +25°C° 0 mm 4 mps 763 mmHg 65%
    13:00 +25°C° 0 mm 4 mps 763 mmHg 63%
    14:00 +26°C° 0 mm 4 mps 763 mmHg 61%
    15:00 +26°C° 0 mm 4 mps 762 mmHg 61%
    16:00 +26°C° 0 mm 4 mps 762 mmHg 61%
    17:00 +26°C° 0 mm 4 mps 761 mmHg 61%
    18:00 +25°C° 0 mm 3 mps 762 mmHg 66%
    19:00 +22°C° 0 mm 3 mps 762 mmHg 71%
    20:00 +21°C° 0 mm 2 mps 762 mmHg 77%
    21:00 +20°C° 0 mm 2 mps 762 mmHg 78%
    22:00 +20°C° 0 mm 2 mps 763 mmHg 79%
    23:00 +19°C° 0 mm 2 mps 763 mmHg 80%

    Tomorrow, 19 January, Saturday

    Time Temperature Precipitation Wind Pressure Humidity
    00:00 +19°C° 0 mm 2 mps 763 mmHg 83%
    01:00 +18°C° 0 mm 2 mps 763 mmHg 86%
    02:00 +18°C° 0 mm 2 mps 763 mmHg 89%
    03:00 +18°C° 0 mm 2 mps 763 mmHg 90%
    04:00 +17°C° 0 mm 2 mps 763 mmHg 92%
    05:00 +17°C° 0 mm 2 mps 763 mmHg 93%
    06:00 +19°C° 0 mm 2 mps 764 mmHg 87%
    07:00 +20°C° 0 mm 2 mps 764 mmHg 80%
    08:00 +22°C° 0 mm 3 mps 764 mmHg 73%
    09:00 +24°C° 0 mm 3 mps 764 mmHg 67%
    10:00 +26°C° 0 mm 4 mps 764 mmHg 61%
    11:00 +27°C° 0 mm 4 mps 764 mmHg 54%
    12:00 +28°C° 0 mm 4 mps 763 mmHg 52%
    13:00 +28°C° 0 mm 4 mps 763 mmHg 51%
    14:00 +29°C° 0 mm 4 mps 762 mmHg 49%
    15:00 +29°C° 0 mm 4 mps 762 mmHg 50%
    16:00 +29°C° 0 mm 4 mps 761 mmHg 52%
    17:00 +28°C° 0 mm 4 mps 761 mmHg 54%
    18:00 +27°C° 0 mm 4 mps 761 mmHg 61%
    19:00 +25°C° 0 mm 3 mps 761 mmHg 67%
    20:00 +22°C° 0 mm 3 mps 761 mmHg 74%
    21:00 +21°C° 0 mm 2 mps 761 mmHg 77%
    22:00 +21°C° 0 mm 2 mps 762 mmHg 80%
    23:00 +20°C° 0 mm 2 mps 762 mmHg 83%

    Day after tomorrow, 20 January, Sunday

    Time Temperature Precipitation Wind Pressure Humidity
    00:00 +20°C° 0 mm 2 mps 762 mmHg 85%
    01:00 +19°C° 0 mm 2 mps 761 mmHg 87%
    02:00 +19°C° 0 mm 2 mps 761 mmHg 89%
    03:00 +18°C° 0 mm 2 mps 761 mmHg 90%
    04:00 +18°C° 0 mm 2 mps 761 mmHg 91%
    05:00 +18°C° 0 mm 2 mps 760 mmHg 92%
    06:00 +19°C° 0 mm 3 mps 761 mmHg 86%
    07:00 +21°C° 0 mm 3 mps 761 mmHg 81%
    08:00 +22°C° 0 mm 4 mps 761 mmHg 75%
    09:00 +25°C° 0 mm 3 mps 760 mmHg 70%
    10:00 +26°C° 0 mm 3 mps 760 mmHg 64%
    11:00 +28°C° 0 mm 3 mps 760 mmHg 58%
    12:00 +28°C° 0 mm 3 mps 759 mmHg 58%
    13:00 +28°C° 0 mm 3 mps 758 mmHg 58%
    14:00 +29°C° 0 mm 3 mps 758 mmHg 58%
    15:00 +29°C° 0 mm 3 mps 757 mmHg 58%
    16:00 +29°C° 0 mm 3 mps 756 mmHg 58%
    17:00 +29°C° 0 mm 3 mps 756 mmHg 58%
    18:00 +27°C° 0 mm 3 mps 756 mmHg 64%
    19:00 +26°C° 0 mm 2 mps 756 mmHg 70%
    20:00 +24°C° 0 mm 2 mps 756 mmHg 76%
    21:00 +24°C° 0 mm 2 mps 757 mmHg 78%
    22:00 +23°C° 0 mm 2 mps 757 mmHg 80%
    23:00 +23°C° 0 mm 2 mps 757 mmHg 82%

    21 January, Monday

    Time Temperature Precipitation Wind Pressure Humidity
    00:00 +21°C° 0 mm 2 mps 757 mmHg 85%
    01:00 +22°C° 0 mm 1 mps 756 mmHg 88%
    02:00 +22°C° 0 mm 1 mps 756 mmHg 91%
    03:00 +21°C° 0 mm 1 mps 756 mmHg 92%
    04:00 +21°C° 0 mm 1 mps 756 mmHg 93%
    05:00 +21°C° 0 mm 1 mps 756 mmHg 94%
    06:00 +23°C° 0 mm 1 mps 757 mmHg 87%
    07:00 +25°C° 0 mm 1 mps 757 mmHg 81%
    08:00 +26°C° 0 mm 1 mps 758 mmHg 75%
    09:00 +26°C° 0 mm 0 mps 757 mmHg 67%
    10:00 +29°C° 0 mm 0 mps 757 mmHg 59%
    11:00 +31°C° 0 mm 0 mps 757 mmHg 51%
    12:00 +31°C° 0 mm 0 mps 757 mmHg 48%
    13:00 +32°C° 0 mm 0 mps 756 mmHg 44%
    14:00 +33°C° 0 mm 0 mps 756 mmHg 40%
    15:00 +33°C° 0 mm 0 mps 755 mmHg 40%
    16:00 +34°C° 0 mm 1 mps 755 mmHg 41%
    17:00 +34°C° 0 mm 1 mps 754 mmHg 41%
    18:00 +32°C° 0 mm 1 mps 755 mmHg 47%
    19:00 +30°C° 0 mm 1 mps 755 mmHg 53%
    20:00 +28°C° 0 mm 2 mps 755 mmHg 58%
    21:00 +27°C° 0 mm 2 mps 755 mmHg 62%
    22:00 +27°C° 0 mm 2 mps 756 mmHg 65%
    23:00 +26°C° 0 mm 2 mps 756 mmHg 69%

    22 January, Tuesday

    Time Temperature Precipitation Wind Pressure Humidity
    00:00 +25°C° 0 mm 2 mps 756 mmHg 71%
    01:00 +25°C° 0 mm 2 mps 755 mmHg 74%
    02:00 +24°C° 0 mm 2 mps 755 mmHg 77%
    03:00 +24°C° 0 mm 2 mps 755 mmHg 79%
    04:00 +24°C° 0 mm 2 mps 755 mmHg 81%
    05:00 +23°C° 0 mm 2 mps 755 mmHg 83%
    06:00 +25°C° 0 mm 2 mps 755 mmHg 78%
    07:00 +27°C° 0 mm 2 mps 755 mmHg 73%
    08:00 +28°C° 0 mm 3 mps 756 mmHg 68%
    09:00 +30°C° 0 mm 3 mps 756 mmHg 62%
    10:00 +33°C° 0 mm 3 mps 755 mmHg 57%
    11:00 +35°C° 0 mm 3 mps 755 mmHg 51%
    12:00 +35°C° 0 mm 3 mps 755 mmHg 52%
    13:00 +35°C° 0 mm 3 mps 754 mmHg 52%
    14:00 +36°C° 0 mm 3 mps 753 mmHg 53%
    15:00 +36°C° 0 mm 3 mps 753 mmHg 53%
    16:00 +36°C° 0 mm 3 mps 753 mmHg 54%
    17:00 +36°C° 0 mm 3 mps 752 mmHg 54%
    18:00 +34°C° 0 mm 3 mps 752 mmHg 60%
    19:00 +31°C° 0 mm 2 mps 753 mmHg 65%
    20:00 +30°C° 0 mm 2 mps 753 mmHg 71%
    21:00 +29°C° 0 mm 2 mps 753 mmHg 73%
    22:00 +29°C° 0 mm 2 mps 754 mmHg 74%
    23:00 +28°C° 0 mm 2 mps 754 mmHg 75%

    23 January, Wednesday

    Time Temperature Precipitation Wind Pressure Humidity
    00:00 +28°C° 0.6 mm 1 mps 754 mmHg 78%
    01:00 +28°C° 0.6 mm 1 mps 753 mmHg 80%
    02:00 +28°C° 0.6 mm 1 mps 753 mmHg 83%
    03:00 +28°C° 7.2 mm 1 mps 753 mmHg 87%
    04:00 +27°C° 7.2 mm 1 mps 753 mmHg 91%
    05:00 +25°C° 7.2 mm 0 mps 753 mmHg 96%
    06:00 +27°C° 1.9 mm 1 mps 753 mmHg 94%
    07:00 +28°C° 1.9 mm 1 mps 754 mmHg 93%
    08:00 +28°C° 1.9 mm 2 mps 755 mmHg 92%
    09:00 +28°C° 0.6 mm 2 mps 755 mmHg 93%
    10:00 +28°C° 0.6 mm 2 mps 756 mmHg 94%
    11:00 +28°C° 0.6 mm 2 mps 756 mmHg 95%
    12:00 +27°C° 0.8 mm 2 mps 756 mmHg 95%
    13:00 +27°C° 0.8 mm 2 mps 755 mmHg 94%
    14:00 +27°C° 0.8 mm 2 mps 755 mmHg 94%
    15:00 +28°C° 0 mm 2 mps 754 mmHg 91%
    16:00 +28°C° 0 mm 3 mps 754 mmHg 87%
    17:00 +29°C° 0 mm 3 mps 753 mmHg 83%
    18:00 +28°C° 0 mm 3 mps 753 mmHg 86%
    19:00 +27°C° 0 mm 2 mps 754 mmHg 89%
    20:00 +26°C° 0 mm 2 mps 754 mmHg 92%
    21:00 +26°C° 0 mm 2 mps 754 mmHg 93%
    22:00 +26°C° 0 mm 2 mps 754 mmHg 94%
    23:00 +25°C° 0 mm 1 mps 754 mmHg 95%
    Show more